Tracking 31030 objects as of 16-Jul-2025
HD Live streaming from Space Station
objects crossing your sky now

CHINASAT 19

Track CHINASAT 19 now!


NORAD ID: 54230
Int'l Code: 2022-148A
Perigee: 35,761.1 km
Apogee: 35,826.2 km
Inclination: 0.0 °
Period: 1,436.1 minutes
Semi major axis: 42164 km
RCS: Unknown
Launch date: November 5, 2022
Source: People's Republic of China (PRC)
Launch site: Xichang Space Center, China (XSC)
Your satellite tracking list
Your tracking list is empty




NASA's NSSDC Master Catalog

Two Line Element Set (TLE):
1 54230U 22148A   25197.53656146 -.00000072  00000-0  00000-0 0  9991
2 54230   0.0189  87.3182 0007721 139.0403  64.8127  1.00272001 10013
Source of the keplerian elements: AFSPC